Time,TemperatureF,DewpointF,PressureIn,WindDirection,WindDirectionDegrees,WindSpeedMPH,WindSpeedGustMPH,Humidity,HourlyPrecipIn,Conditions,Clouds,dailyrainin,SolarRadiationWatts/m^2,SoftwareType,DateUTC
2013-03-27 00:02:00,30.0,26.0,29.96,East,86,5.0,7.0,85,-99.99,,,-99.99,0.000000,,2013-03-27 06:02:00,
2013-03-27 00:11:00,29.0,26.0,29.96,East,89,4.0,6.0,86,-99.99,,,-99.99,-0.100000,,2013-03-27 06:11:00,
2013-03-27 00:22:00,29.0,26.0,29.97,East,90,5.0,6.0,87,-99.99,,,-99.99,0.000000,,2013-03-27 06:22:00,
2013-03-27 00:32:00,29.0,26.0,29.97,East,95,5.0,7.0,87,-99.99,,,-99.99,0.000000,,2013-03-27 06:32:00,
2013-03-27 00:42:00,30.0,26.0,29.97,ESE,102,7.0,8.0,87,-99.99,,,-99.99,0.000000,,2013-03-27 06:42:00,
2013-03-27 00:52:00,30.0,27.0,29.97,SE,126,6.0,7.0,87,-99.99,,,-99.99,-0.100000,,2013-03-27 06:52:00,
2013-03-27 01:02:00,31.0,28.0,29.97,ESE,109,6.0,6.0,86,-99.99,,,-99.99,0.000000,,2013-03-27 07:02:00,
2013-03-27 01:11:00,31.0,28.0,29.96,ESE,108,5.0,6.0,86,-99.99,,,-99.99,-0.100000,,2013-03-27 07:11:00,
2013-03-27 01:21:00,32.0,28.0,29.97,SE,140,3.0,4.0,87,-99.99,,,-99.99,-0.100000,,2013-03-27 07:21:00,
2013-03-27 01:32:00,32.0,29.0,29.96,East,96,3.0,3.0,86,-99.99,,,-99.99,0.000000,,2013-03-27 07:32:00,
2013-03-27 01:41:00,33.0,29.0,29.96,East,100,5.0,6.0,86,-99.99,,,-99.99,0.000000,,2013-03-27 07:41:00,
2013-03-27 01:53:00,34.0,30.0,29.96,East,83,5.0,6.0,85,-99.99,,,-99.99,0.000000,,2013-03-27 07:53:00,
2013-03-27 02:02:00,33.0,29.0,29.96,East,88,2.0,4.0,84,-99.99,,,-99.99,-0.100000,,2013-03-27 08:02:00,
2013-03-27 02:11:00,35.0,30.0,29.96,East,91,4.0,6.0,83,-99.99,,,-99.99,0.100000,,2013-03-27 08:11:00,
2013-03-27 02:21:00,34.0,30.0,29.96,East,94,6.0,8.0,83,-99.99,,,-99.99,-0.100000,,2013-03-27 08:21:00,
2013-03-27 02:32:00,33.0,29.0,29.96,East,98,7.0,9.0,83,-99.99,,,-99.99,-0.100000,,2013-03-27 08:32:00,
2013-03-27 02:42:00,33.0,29.0,29.96,East,101,6.0,7.0,84,-99.99,,,-99.99,-0.100000,,2013-03-27 08:42:00,
2013-03-27 02:51:00,31.0,27.0,29.96,ESE,121,3.0,4.0,86,-99.99,,,-99.99,0.000000,,2013-03-27 08:51:00,
2013-03-27 03:01:00,30.0,27.0,29.96,ESE,116,4.0,5.0,86,-99.99,,,-99.99,0.000000,,2013-03-27 09:01:00,
2013-03-27 03:11:00,30.0,27.0,29.96,South,174,4.0,5.0,88,-99.99,,,-99.99,0.000000,,2013-03-27 09:11:00,
2013-03-27 03:21:00,32.0,29.0,29.96,NW,312,3.0,4.0,87,-99.99,,,-99.99,0.000000,,2013-03-27 09:21:00,
2013-03-27 03:32:00,31.0,28.0,29.95,NNE,19,3.0,3.0,86,-99.99,,,-99.99,0.000000,,2013-03-27 09:32:00,
2013-03-27 03:42:00,32.0,28.0,29.95,NNE,29,2.0,3.0,86,-99.99,,,-99.99,-0.100000,,2013-03-27 09:42:00,
2013-03-27 03:52:00,29.0,26.0,29.96,WSW,258,2.0,4.0,86,-99.99,,,-99.99,0.100000,,2013-03-27 09:52:00,
2013-03-27 04:02:00,29.0,26.0,29.95,WNW,288,3.0,4.0,88,-99.99,,,-99.99,0.000000,,2013-03-27 10:02:00,
2013-03-27 04:12:00,29.0,26.0,29.95,West,262,2.0,2.0,89,-99.99,,,-99.99,0.000000,,2013-03-27 10:12:00,
2013-03-27 04:22:00,30.0,27.0,29.95,SSE,160,1.0,2.0,90,-99.99,,,-99.99,0.100000,,2013-03-27 10:22:00,
2013-03-27 04:32:00,30.0,28.0,29.95,East,84,1.0,2.0,90,-99.99,,,-99.99,-0.200000,,2013-03-27 10:32:00,
2013-03-27 04:41:00,31.0,28.0,29.96,East,93,1.0,2.0,90,-99.99,,,-99.99,0.000000,,2013-03-27 10:41:00,
2013-03-27 04:52:00,31.0,28.0,29.96,NE,36,2.0,3.0,89,-99.99,,,-99.99,0.000000,,2013-03-27 10:52:00,
2013-03-27 05:02:00,31.0,28.0,29.96,East,91,2.0,3.0,87,-99.99,,,-99.99,-0.100000,,2013-03-27 11:02:00,
2013-03-27 05:11:00,31.0,28.0,29.97,SE,130,1.0,2.0,86,-99.99,,,-99.99,-0.100000,,2013-03-27 11:11:00,
2013-03-27 05:21:00,31.0,28.0,29.97,ENE,58,2.0,3.0,87,-99.99,,,-99.99,-0.200000,,2013-03-27 11:21:00,
2013-03-27 05:32:00,32.0,28.0,29.97,East,84,3.0,4.0,86,-99.99,,,-99.99,0.000000,,2013-03-27 11:32:00,
2013-03-27 05:42:00,32.0,28.0,29.97,East,80,4.0,5.0,87,-99.99,,,-99.99,-0.100000,,2013-03-27 11:42:00,
2013-03-27 05:52:00,31.0,28.0,29.97,ESE,110,4.0,5.0,87,-99.99,,,-99.99,0.000000,,2013-03-27 11:52:00,
2013-03-27 06:02:00,31.0,28.0,29.97,ESE,104,4.0,5.0,87,-99.99,,,-99.99,0.000000,,2013-03-27 12:02:00,
2013-03-27 06:11:00,31.0,28.0,29.98,East,101,5.0,6.0,86,-99.99,,,-99.99,0.000000,,2013-03-27 12:11:00,
2013-03-27 06:22:00,32.0,28.0,29.98,East,92,4.0,5.0,86,-99.99,,,-99.99,-0.100000,,2013-03-27 12:22:00,
2013-03-27 06:32:00,32.0,28.0,29.98,East,83,4.0,5.0,86,-99.99,,,-99.99,0.000000,,2013-03-27 12:32:00,
2013-03-27 06:42:00,32.0,28.0,29.98,East,82,5.0,6.0,85,-99.99,,,-99.99,0.000000,,2013-03-27 12:42:00,
2013-03-27 06:51:00,33.0,29.0,29.98,ESE,105,3.0,4.0,85,-99.99,,,-99.99,0.000000,,2013-03-27 12:51:00,
2013-03-27 07:02:00,33.0,29.0,29.98,ENE,58,4.0,5.0,85,-99.99,,,-99.99,0.000000,,2013-03-27 13:02:00,
2013-03-27 07:11:00,33.0,29.0,29.98,ENE,57,4.0,5.0,84,-99.99,,,-99.99,0.000000,,2013-03-27 13:11:00,
2013-03-27 07:21:00,33.0,29.0,29.98,ENE,62,5.0,6.0,84,-99.99,,,-99.99,0.000000,,2013-03-27 13:21:00,
2013-03-27 07:32:00,33.0,29.0,29.98,ENE,74,4.0,5.0,85,-99.99,,,-99.99,0.700000,,2013-03-27 13:32:00,
2013-03-27 07:41:00,33.0,29.0,29.98,ENE,77,2.0,4.0,85,-99.99,,,-99.99,2.700000,,2013-03-27 13:41:00,
2013-03-27 07:52:00,32.0,29.0,29.99,WSW,258,0.0,1.0,86,-99.99,,,-99.99,6.200000,,2013-03-27 13:52:00,
2013-03-27 08:02:00,32.0,29.0,29.99,SSE,148,2.0,3.0,87,-99.99,,,-99.99,10.700000,,2013-03-27 14:02:00,
2013-03-27 08:11:00,32.0,29.0,29.99,South,184,3.0,3.0,87,-99.99,,,-99.99,14.800000,,2013-03-27 14:11:00,
2013-03-27 08:21:00,32.0,29.0,29.99,SW,228,2.0,3.0,89,-99.99,,,-99.99,25.299999,,2013-03-27 14:21:00,
2013-03-27 08:32:00,32.0,29.0,29.99,SW,236,2.0,2.0,89,-99.99,,,-99.99,38.299999,,2013-03-27 14:32:00,
2013-03-27 08:41:00,33.0,30.0,29.99,SW,229,1.0,1.0,89,-99.99,,,-99.99,46.799999,,2013-03-27 14:41:00,
2013-03-27 08:51:00,33.0,30.0,30.00,SW,232,2.0,2.0,88,-99.99,,,-99.99,57.400002,,2013-03-27 14:51:00,
2013-03-27 09:02:00,33.0,30.0,30.00,SW,224,2.0,2.0,87,-99.99,,,-99.99,64.599998,,2013-03-27 15:02:00,
2013-03-27 09:11:00,33.0,30.0,30.00,SSW,202,2.0,2.0,86,-99.99,,,-99.99,78.599998,,2013-03-27 15:11:00,
2013-03-27 09:21:00,34.0,30.0,30.00,SSW,196,3.0,3.0,86,-99.99,,,-99.99,91.500000,,2013-03-27 15:21:00,
2013-03-27 09:32:00,34.0,31.0,30.00,SSE,157,1.0,1.0,86,-99.99,,,-99.99,98.300003,,2013-03-27 15:32:00,
2013-03-27 09:42:00,35.0,31.0,30.00,SSE,156,2.0,2.0,85,-99.99,,,-99.99,104.000000,,2013-03-27 15:42:00,
2013-03-27 09:52:00,36.0,31.0,30.00,SE,138,1.0,1.0,84,-99.99,,,-99.99,114.300003,,2013-03-27 15:52:00,
2013-03-27 10:02:00,36.0,31.0,30.00,ESE,121,0.0,1.0,82,-99.99,,,-99.99,134.100006,,2013-03-27 16:02:00,
2013-03-27 10:12:00,37.0,32.0,30.00,NNE,12,1.0,1.0,80,-99.99,,,-99.99,155.100006,,2013-03-27 16:12:00,
2013-03-27 10:22:00,38.0,31.0,30.00,NNW,337,2.0,3.0,77,-99.99,,,-99.99,166.800003,,2013-03-27 16:22:00,
2013-03-27 10:32:00,38.0,32.0,30.00,North,358,3.0,4.0,78,-99.99,,,-99.99,176.699997,,2013-03-27 16:32:00,
2013-03-27 10:41:00,39.0,33.0,30.01,North,0,4.0,5.0,78,-99.99,,,-99.99,178.899994,,2013-03-27 16:41:00,
2013-03-27 10:52:00,40.0,33.0,30.01,North,4,5.0,6.0,75,-99.99,,,-99.99,204.500000,,2013-03-27 16:52:00,
2013-03-27 11:02:00,41.0,33.0,30.01,North,2,6.0,6.0,75,-99.99,,,-99.99,251.199997,,2013-03-27 17:02:00,
2013-03-27 11:11:00,41.0,34.0,30.01,North,357,5.0,6.0,74,-99.99,,,-99.99,293.799988,,2013-03-27 17:11:00,
2013-03-27 11:22:00,42.0,34.0,30.01,NNW,346,6.0,8.0,72,-99.99,,,-99.99,344.299988,,2013-03-27 17:22:00,
2013-03-27 11:32:00,43.0,34.0,30.01,North,2,5.0,7.0,69,-99.99,,,-99.99,379.700012,,2013-03-27 17:32:00,
2013-03-27 11:44:00,44.0,34.0,30.01,North,352,5.0,7.0,67,-99.99,,,-99.99,527.700012,,2013-03-27 17:44:00,
2013-03-27 11:52:00,45.0,34.0,30.02,NNW,337,6.0,8.0,64,-99.99,,,-99.99,414.399994,,2013-03-27 17:52:00,
2013-03-27 12:02:00,45.0,34.0,30.02,NNW,343,5.0,7.0,64,-99.99,,,-99.99,385.500000,,2013-03-27 18:02:00,
2013-03-27 12:11:00,45.0,33.0,30.02,NNW,340,6.0,8.0,62,-99.99,,,-99.99,363.200012,,2013-03-27 18:11:00,
2013-03-27 12:22:00,46.0,34.0,30.02,NNW,339,4.0,6.0,63,-99.99,,,-99.99,357.700012,,2013-03-27 18:22:00,
2013-03-27 12:32:00,46.0,34.0,30.02,NNW,335,6.0,7.0,62,-99.99,,,-99.99,433.100006,,2013-03-27 18:32:00,
2013-03-27 12:42:00,47.0,34.0,30.02,North,5,4.0,6.0,61,-99.99,,,-99.99,581.099976,,2013-03-27 18:42:00,
2013-03-27 12:52:00,47.0,34.0,30.02,NNW,331,4.0,5.0,59,-99.99,,,-99.99,646.299988,,2013-03-27 18:52:00,
2013-03-27 13:02:00,48.0,33.0,30.01,North,4,5.0,9.0,57,-99.99,,,-99.99,513.200012,,2013-03-27 19:02:00,
2013-03-27 13:11:00,48.0,34.0,30.01,ESE,111,2.0,3.0,57,-99.99,,,-99.99,475.700012,,2013-03-27 19:11:00,
2013-03-27 13:21:00,48.0,34.0,30.01,NNE,22,2.0,4.0,57,-99.99,,,-99.99,547.599976,,2013-03-27 19:21:00,
2013-03-27 13:32:00,49.0,34.0,30.01,North,6,6.0,10.0,55,-99.99,,,-99.99,520.500000,,2013-03-27 19:32:00,
2013-03-27 13:42:00,49.0,34.0,30.01,NE,36,3.0,5.0,55,-99.99,,,-99.99,516.700012,,2013-03-27 19:42:00,
2013-03-27 13:51:00,49.0,34.0,30.01,NNW,337,6.0,10.0,55,-99.99,,,-99.99,660.900024,,2013-03-27 19:51:00,
2013-03-27 14:02:00,50.0,34.0,30.00,North,0,6.0,8.0,54,-99.99,,,-99.99,844.000000,,2013-03-27 20:02:00,
2013-03-27 14:11:00,51.0,35.0,30.00,North,1,6.0,9.0,54,-99.99,,,-99.99,827.000000,,2013-03-27 20:11:00,
2013-03-27 14:21:00,52.0,34.0,30.00,NW,308,5.0,7.0,49,-99.99,,,-99.99,823.000000,,2013-03-27 20:21:00,
2013-03-27 14:32:00,52.0,34.0,30.00,North,356,4.0,6.0,50,-99.99,,,-99.99,816.000000,,2013-03-27 20:32:00,
2013-03-27 14:42:00,53.0,33.0,30.00,WNW,288,7.0,10.0,45,-99.99,,,-99.99,808.000000,,2013-03-27 20:42:00,
2013-03-27 14:51:00,53.0,32.0,29.99,WSW,254,3.0,6.0,45,-99.99,,,-99.99,802.000000,,2013-03-27 20:51:00,
2013-03-27 15:01:00,53.0,31.0,29.99,NW,316,6.0,8.0,43,-99.99,,,-99.99,788.099976,,2013-03-27 21:01:00,
2013-03-27 15:11:00,53.0,32.0,29.99,WNW,301,7.0,11.0,44,-99.99,,,-99.99,778.200012,,2013-03-27 21:11:00,
2013-03-27 15:21:00,54.0,33.0,29.98,NNW,339,6.0,13.0,45,-99.99,,,-99.99,760.900024,,2013-03-27 21:21:00,
2013-03-27 15:32:00,54.0,32.0,29.98,SSW,211,4.0,7.0,43,-99.99,,,-99.99,744.700012,,2013-03-27 21:32:00,
2013-03-27 15:42:00,53.0,32.0,29.98,North,9,3.0,11.0,43,-99.99,,,-99.99,764.599976,,2013-03-27 21:42:00,
2013-03-27 15:52:00,54.0,31.0,29.98,NE,45,4.0,7.0,41,-99.99,,,-99.99,662.299988,,2013-03-27 21:52:00,
2013-03-27 16:02:00,55.0,29.0,29.98,WNW,290,9.0,12.0,37,-99.99,,,-99.99,744.700012,,2013-03-27 22:02:00,
2013-03-27 16:12:00,56.0,29.0,29.98,WSW,239,7.0,11.0,35,-99.99,,,-99.99,699.700012,,2013-03-27 22:12:00,
2013-03-27 16:22:00,55.0,27.0,29.97,WNW,298,6.0,10.0,33,-99.99,,,-99.99,657.000000,,2013-03-27 22:22:00,
2013-03-27 16:32:00,56.0,28.0,29.97,WSW,245,8.0,12.0,35,-99.99,,,-99.99,618.599976,,2013-03-27 22:32:00,
2013-03-27 16:42:00,56.0,27.0,29.97,West,274,10.0,15.0,32,-99.99,,,-99.99,234.399994,,2013-03-27 22:42:00,
2013-03-27 16:52:00,56.0,25.0,29.97,West,280,4.0,7.0,30,-99.99,,,-99.99,579.400024,,2013-03-27 22:52:00,
2013-03-27 17:02:00,56.0,24.0,29.97,West,277,7.0,10.0,28,-99.99,,,-99.99,548.799988,,2013-03-27 23:02:00,
2013-03-27 17:11:00,56.0,24.0,29.97,SW,233,6.0,12.0,28,-99.99,,,-99.99,517.500000,,2013-03-27 23:11:00,
2013-03-27 17:21:00,56.0,26.0,29.97,North,3,4.0,7.0,31,-99.99,,,-99.99,484.799988,,2013-03-27 23:21:00,
2013-03-27 17:32:00,56.0,26.0,29.97,NW,320,5.0,10.0,31,-99.99,,,-99.99,458.600006,,2013-03-27 23:32:00,
2013-03-27 17:42:00,56.0,24.0,29.97,WSW,258,7.0,12.0,28,-99.99,,,-99.99,428.799988,,2013-03-27 23:42:00,
2013-03-27 17:51:00,56.0,24.0,29.97,WSW,249,4.0,6.0,29,-99.99,,,-99.99,399.399994,,2013-03-27 23:51:00,
2013-03-27 18:01:00,56.0,24.0,29.97,NW,309,5.0,9.0,29,-99.99,,,-99.99,368.299988,,2013-03-28 00:01:00,
2013-03-27 18:11:00,55.0,24.0,29.97,South,172,2.0,3.0,30,-99.99,,,-99.99,316.700012,,2013-03-28 00:11:00,
2013-03-27 18:21:00,56.0,25.0,29.97,SW,227,5.0,7.0,29,-99.99,,,-99.99,264.600006,,2013-03-28 00:21:00,
2013-03-27 18:32:00,56.0,25.0,29.97,WSW,245,4.0,6.0,30,-99.99,,,-99.99,291.200012,,2013-03-28 00:32:00,
2013-03-27 18:41:00,56.0,25.0,29.97,SW,229,3.0,5.0,30,-99.99,,,-99.99,264.700012,,2013-03-28 00:41:00,
2013-03-27 18:51:00,56.0,27.0,29.97,NNE,17,2.0,4.0,32,-99.99,,,-99.99,210.699997,,2013-03-28 00:51:00,
2013-03-27 19:01:00,55.0,26.0,29.97,NNE,23,2.0,3.0,33,-99.99,,,-99.99,153.800003,,2013-03-28 01:01:00,
2013-03-27 19:11:00,55.0,27.0,29.97,NE,39,5.0,6.0,33,-99.99,,,-99.99,150.500000,,2013-03-28 01:11:00,
2013-03-27 19:21:00,55.0,27.0,29.97,NE,38,6.0,7.0,34,-99.99,,,-99.99,102.800003,,2013-03-28 01:21:00,
2013-03-27 19:32:00,55.0,26.0,29.97,NNE,17,4.0,5.0,33,-99.99,,,-99.99,56.000000,,2013-03-28 01:32:00,
2013-03-27 19:42:00,54.0,27.0,29.97,NNE,33,4.0,5.0,35,-99.99,,,-99.99,20.200001,,2013-03-28 01:42:00,
2013-03-27 19:52:00,53.0,28.0,29.97,NE,50,4.0,5.0,37,-99.99,,,-99.99,13.400000,,2013-03-28 01:52:00,
2013-03-27 20:02:00,53.0,28.0,29.97,NE,40,4.0,4.0,37,-99.99,,,-99.99,7.800000,,2013-03-28 02:02:00,
2013-03-27 20:11:00,52.0,28.0,29.97,NE,48,4.0,4.0,40,-99.99,,,-99.99,2.700000,,2013-03-28 02:11:00,
2013-03-27 20:32:00,46.0,29.0,29.97,ESE,113,8.0,9.0,51,-99.99,,,-99.99,0.000000,,2013-03-28 02:32:00,
2013-03-27 20:41:00,46.0,29.0,29.97,ESE,113,8.0,9.0,51,-99.99,,,-99.99,0.000000,,2013-03-28 02:41:00,
2013-03-27 20:51:00,46.0,29.0,29.97,ESE,113,8.0,9.0,51,-99.99,,,-99.99,0.000000,,2013-03-28 02:51:00,
2013-03-27 21:02:00,46.0,28.0,29.98,East,91,4.0,5.0,48,-99.99,,,-99.99,0.000000,,2013-03-28 03:02:00,
2013-03-27 21:11:00,44.0,28.0,29.98,ENE,78,6.0,7.0,53,-99.99,,,-99.99,0.000000,,2013-03-28 03:11:00,
2013-03-27 21:21:00,43.0,29.0,29.98,East,82,9.0,10.0,56,-99.99,,,-99.99,0.000000,,2013-03-28 03:21:00,
2013-03-27 21:32:00,43.0,28.0,29.98,East,95,6.0,8.0,55,-99.99,,,-99.99,0.000000,,2013-03-28 03:32:00,
2013-03-27 21:42:00,43.0,28.0,29.98,East,98,8.0,10.0,56,-99.99,,,-99.99,-0.100000,,2013-03-28 03:42:00,
2013-03-27 21:52:00,43.0,29.0,29.98,East,101,9.0,11.0,57,-99.99,,,-99.99,0.000000,,2013-03-28 03:52:00,
2013-03-27 22:02:00,43.0,28.0,29.98,ESE,104,8.0,10.0,55,-99.99,,,-99.99,-0.100000,,2013-03-28 04:02:00,
2013-03-27 22:12:00,45.0,29.0,29.98,East,90,7.0,8.0,53,-99.99,,,-99.99,0.000000,,2013-03-28 04:12:00,
2013-03-27 22:22:00,43.0,29.0,29.98,East,88,7.0,9.0,57,-99.99,,,-99.99,-0.100000,,2013-03-28 04:22:00,
2013-03-27 22:32:00,42.0,28.0,29.99,East,88,6.0,7.0,58,-99.99,,,-99.99,0.000000,,2013-03-28 04:32:00,
2013-03-27 22:42:00,43.0,28.0,29.98,East,91,8.0,9.0,55,-99.99,,,-99.99,0.000000,,2013-03-28 04:42:00,
2013-03-27 22:52:00,42.0,28.0,29.99,ENE,74,6.0,9.0,56,-99.99,,,-99.99,-0.100000,,2013-03-28 04:52:00,
2013-03-27 23:02:00,41.0,28.0,29.99,East,92,4.0,6.0,59,-99.99,,,-99.99,-0.100000,,2013-03-28 05:02:00,
2013-03-27 23:11:00,40.0,28.0,29.99,ENE,77,5.0,6.0,61,-99.99,,,-99.99,0.000000,,2013-03-28 05:11:00,
2013-03-27 23:22:00,39.0,28.0,29.99,ENE,77,3.0,4.0,64,-99.99,,,-99.99,0.000000,,2013-03-28 05:22:00,
2013-03-27 23:31:00,39.0,28.0,29.99,ESE,102,3.0,4.0,64,-99.99,,,-99.99,-0.100000,,2013-03-28 05:31:00,
2013-03-27 23:42:00,39.0,28.0,29.99,ESE,106,4.0,6.0,65,-99.99,,,-99.99,0.000000,,2013-03-28 05:42:00,
2013-03-27 23:51:00,38.0,28.0,29.99,ESE,104,5.0,6.0,64,-99.99,,,-99.99,0.000000,,2013-03-28 05:51:00,